| time (UTC) | temp C | wind direction | speed KPH | gust KPH | rain 1hr cm | rain 24hr cm | rain mn cm | humidity % | barometer mb |
| 20260504081821 | 3 | 260 | 0.0 | 0.0 | 0.00 | 0.00 | 0.00 | 83 | 1010.2 |
| 20260504081300 | 3 | 260 | 0.0 | 0.0 | 0.00 | 0.00 | 0.00 | 82 | 1010.1 |
| 20260504050739 | 0 | 260 | 0.0 | 0.0 | 0.00 | 0.00 | 0.00 | 84 | 1010.1 |
| 20260504045739 | 0 | 260 | 0.0 | 0.0 | 0.00 | 0.00 | 0.00 | 84 | 1010.1 |
| 20260504044728 | 0 | 260 | 0.0 | 0.0 | 0.00 | 0.00 | 0.00 | 83 | 1010.1 |
| 20260504043728 | 0 | 260 | 0.0 | 0.0 | 0.00 | 0.00 | 0.00 | 83 | 1010.1 |
| 20260504042727 | 0 | 260 | 0.0 | 0.0 | 0.00 | 0.00 | 0.00 | 82 | 1010.1 |
| 20260504041727 | 0 | 260 | 0.0 | 0.0 | 0.00 | 0.00 | 0.00 | 82 | 1010.1 |
| 20260504041651 | 0 | 260 | 0.0 | 0.0 | 0.00 | 0.00 | 0.00 | 81 | 1009.9 |
| 20260504040208 | 1 | 260 | 0.0 | 0.0 | 0.00 | 0.00 | 0.00 | 80 | 1009.8 |
| 20260504034722 | 1 | 260 | 0.0 | 0.0 | 0.00 | 0.00 | 0.00 | 80 | 1009.8 |
| 20260504033720 | 1 | 260 | 0.0 | 0.0 | 0.00 | 0.00 | 0.00 | 79 | 1009.7 |
| 20260504032718 | 1 | 260 | 0.0 | 0.0 | 0.00 | 0.00 | 0.00 | 79 | 1009.7 |
| 20260504031719 | 1 | 260 | 0.0 | 0.0 | 0.00 | 0.00 | 0.00 | 79 | 1009.7 |
| 20260504030711 | 1 | 260 | 0.0 | 0.0 | 0.00 | 0.00 | 0.00 | 78 | 1009.7 |
| 20260504025712 | 2 | 260 | 0.0 | 0.0 | 0.00 | 0.00 | 0.00 | 76 | 1009.7 |
| 20260504024709 | 2 | 260 | 0.0 | 0.0 | 0.00 | 0.00 | 0.00 | 75 | 1009.7 |
| 20260504023709 | 2 | 260 | 0.0 | 0.0 | 0.00 | 0.00 | 0.00 | 75 | 1009.7 |
| 20260504022710 | 2 | 260 | 0.0 | 0.0 | 0.00 | 0.00 | 0.00 | 75 | 1009.6 |
| 20260504021707 | 3 | 260 | 0.0 | 0.0 | 0.00 | 0.00 | 0.00 | 73 | 1009.6 |
| 20260504021145 | 3 | 260 | 0.0 | 0.0 | 0.00 | 0.00 | 0.00 | 72 | 1009.5 |
| 20260504015708 | 3 | 260 | 0.0 | 0.0 | 0.00 | 0.00 | 0.00 | 72 | 1009.4 |
| 20260504014707 | 3 | 260 | 0.0 | 0.0 | 0.00 | 0.00 | 0.00 | 69 | 1009.4 |
| 20260504013708 | 4 | 260 | 0.0 | 0.0 | 0.00 | 0.00 | 0.00 | 69 | 1009.2 |
| 20260504012708 | 4 | 260 | 0.0 | 0.0 | 0.00 | 0.00 | 0.00 | 67 | 1009.2 |
| 20260504012639 | 5 | 260 | 0.0 | 0.0 | 0.00 | 0.00 | 0.00 | 65 | 1009.2 |
| 20260504010653 | 5 | 260 | 0.0 | 0.0 | 0.00 | 0.00 | 0.00 | 63 | 1009.0 |
| 20260504010126 | 6 | 260 | 0.0 | 0.0 | 0.00 | 0.00 | 0.00 | 61 | 1008.7 |
| 20260504004655 | 6 | 260 | 0.0 | 0.0 | 0.00 | 0.03 | 0.00 | 60 | 1008.7 |
| 20260504003653 | 6 | 260 | 0.0 | 0.0 | 0.00 | 0.03 | 0.00 | 59 | 1008.6 |
| 20260504002653 | 7 | 260 | 0.0 | 0.0 | 0.00 | 0.03 | 0.00 | 56 | 1008.3 |
| 20260504002136 | 7 | 263 | 0.0 | 0.0 | 0.00 | 0.03 | 0.00 | 55 | 1008.3 |
| 20260504000651 | 8 | 263 | 0.0 | 0.0 | 0.00 | 0.03 | 0.00 | 53 | 1008.2 |
| 20260503235651 | 8 | 263 | 0.0 | 0.0 | 0.00 | 0.03 | 0.00 | 52 | 1008.2 |
| 20260503234651 | 8 | 263 | 0.0 | 0.0 | 0.00 | 0.03 | 0.00 | 51 | 1008.2 |
| 20260503233651 | 9 | 263 | 0.0 | 3.2 | 0.00 | 0.03 | 0.00 | 52 | 1008.0 |
| 20260503232652 | 9 | 263 | 1.6 | 3.2 | 0.00 | 0.03 | 0.00 | 51 | 1007.9 |
| 20260503231641 | 9 | 264 | 0.0 | 4.8 | 0.00 | 0.03 | 0.00 | 51 | 1007.9 |
| 20260503230641 | 10 | 268 | 1.6 | 4.8 | 0.00 | 0.03 | 0.00 | 49 | 1007.7 |
| 20260503225641 | 10 | 310 | 3.2 | 11.3 | 0.00 | 0.03 | 0.00 | 49 | 1007.6 |
| 20260503224641 | 10 | 265 | 3.2 | 4.8 | 0.00 | 0.03 | 0.00 | 48 | 1007.6 |
| 20260503223641 | 10 | 296 | 4.8 | 9.7 | 0.00 | 0.03 | 0.00 | 47 | 1007.5 |
| 20260503222639 | 10 | 301 | 4.8 | 12.9 | 0.00 | 0.03 | 0.00 | 47 | 1007.3 |
| 20260503221640 | 10 | 136 | 3.2 | 11.3 | 0.00 | 0.03 | 0.00 | 47 | 1007.3 |
| 20260503220639 | 10 | 54 | 4.8 | 9.7 | 0.00 | 0.03 | 0.00 | 44 | 1007.1 |
| 20260503215639 | 10 | 310 | 4.8 | 12.9 | 0.00 | 0.03 | 0.00 | 45 | 1007.0 |
| 20260503214639 | 10 | 47 | 4.8 | 12.9 | 0.00 | 0.03 | 0.00 | 45 | 1007.0 |
| 20260503213640 | 11 | 284 | 4.8 | 12.9 | 0.00 | 0.03 | 0.00 | 45 | 1007.0 |
| 20260503212630 | 11 | 108 | 4.8 | 19.3 | 0.00 | 0.03 | 0.00 | 47 | 1006.7 |
| 20260503211629 | 11 | 321 | 4.8 | 14.5 | 0.00 | 0.05 | 0.00 | 48 | 1006.7 |
| 20260503210629 | 11 | 190 | 3.2 | 9.7 | 0.00 | 0.08 | 0.00 | 45 | 1006.5 |
| 20260503205629 | 11 | 279 | 4.8 | 12.9 | 0.00 | 0.08 | 0.00 | 49 | 1006.4 |
| 20260503204627 | 11 | 248 | 3.2 | 11.3 | 0.00 | 0.10 | 0.00 | 50 | 1006.4 |
| 20260503203627 | 11 | 287 | 3.2 | 8.0 | 0.00 | 0.13 | 0.00 | 48 | 1006.1 |
| 20260503202627 | 11 | 198 | 3.2 | 9.7 | 0.00 | 0.13 | 0.00 | 47 | 1006.0 |
| 20260503201627 | 11 | 54 | 4.8 | 12.9 | 0.00 | 0.13 | 0.00 | 46 | 1006.0 |
| 20260503200626 | 11 | 301 | 6.4 | 14.5 | 0.00 | 0.13 | 0.00 | 46 | 1005.9 |
| 20260503195627 | 11 | 291 | 3.2 | 9.7 | 0.00 | 0.13 | 0.00 | 46 | 1006.0 |
| 20260503194626 | 11 | 262 | 4.8 | 14.5 | 0.00 | 0.13 | 0.00 | 47 | 1006.0 |
| 20260503193626 | 11 | 311 | 4.8 | 12.9 | 0.00 | 0.13 | 0.00 | 49 | 1006.0 |
| 20260503192625 | 11 | 301 | 4.8 | 9.7 | 0.00 | 0.13 | 0.00 | 50 | 1006.0 |
| 20260503191624 | 11 | 103 | 4.8 | 9.7 | 0.00 | 0.13 | 0.00 | 52 | 1006.0 |
| 20260503190624 | 10 | 285 | 3.2 | 11.3 | 0.00 | 0.13 | 0.00 | 52 | 1006.0 |
| 20260503190103 | 10 | 100 | 3.2 | 16.1 | 0.00 | 0.13 | 0.00 | 55 | 1006.1 |
| 20260503184625 | 10 | 35 | 3.2 | 11.3 | 0.00 | 0.13 | 0.00 | 55 | 1006.1 |
| 20260503183625 | 11 | 28 | 3.2 | 11.3 | 0.00 | 0.13 | 0.00 | 55 | 1006.0 |
| 20260503182625 | 11 | 23 | 4.8 | 12.9 | 0.00 | 0.13 | 0.00 | 54 | 1006.0 |
| 20260503181625 | 11 | 356 | 4.8 | 17.7 | 0.00 | 0.13 | 0.00 | 53 | 1006.0 |
| 20260503180624 | 11 | 15 | 4.8 | 14.5 | 0.00 | 0.13 | 0.00 | 54 | 1006.0 |
| 20260503175626 | 10 | 2 | 4.8 | 16.1 | 0.00 | 0.13 | 0.00 | 55 | 1006.0 |
| 20260503174625 | 10 | 14 | 8.0 | 19.3 | 0.00 | 0.13 | 0.00 | 56 | 1006.0 |
| 20260503173624 | 10 | 340 | 4.8 | 12.9 | 0.00 | 0.13 | 0.00 | 58 | 1006.1 |
| 20260503172623 | 10 | 332 | 4.8 | 11.3 | 0.00 | 0.13 | 0.00 | 59 | 1006.4 |
| 20260503172107 | 10 | 143 | 4.8 | 12.9 | 0.00 | 0.13 | 0.00 | 59 | 1006.4 |
| 20260503170624 | 10 | 310 | 6.4 | 24.1 | 0.00 | 0.13 | 0.00 | 59 | 1006.0 |